EW7114 Weather Reports


Display with metric or nautical units.
time (UTC)temp
F
wind
direction
speed
MPH
gust
MPH
rain 1hr
in
rain 24hr
in
rain mn
in
humidity
%
barometer
mb
20220528014043 73 345 5.0 10.0 0.00 0.00 0.00 31 997.9
20220528013544 73 359 5.0 11.0 0.00 0.00 0.00 31 997.8
20220528013044 74 9 5.0 13.0 0.00 0.00 0.00 31 997.8
20220528012547 74 355 6.0 14.0 0.00 0.00 0.00 30 997.7
20220528012045 75 345 9.0 15.0 0.00 0.00 0.00 29 997.7
20220528011543 75 355 10.0 17.0 0.00 0.00 0.00 29 997.9
20220528011047 75 355 9.0 17.0 0.00 0.00 0.00 29 998.1
20220528010543 75 345 12.0 17.0 0.00 0.00 0.00 28 998.1
20220528010043 76 326 12.0 19.0 0.00 0.00 0.00 28 998.2
20220528005542 76 324 13.0 21.0 0.00 0.00 0.00 28 998.2
20220528005042 76 286 13.0 21.0 0.00 0.00 0.00 27 998.2
20220528004542 76 293 8.0 16.0 0.00 0.00 0.00 27 998.1
20220528004042 76 7 6.0 19.0 0.00 0.00 0.00 29 997.8
20220528003548 76 13 9.0 19.0 0.00 0.00 0.00 28 997.6
20220528003041 75 350 11.0 18.0 0.00 0.00 0.00 30 997.6
20220528002540 75 350 11.0 18.0 0.00 0.00 0.00 29 997.9
20220528002042 76 315 13.0 18.0 0.00 0.00 0.00 29 998.3
20220528001552 76 345 10.0 15.0 0.00 0.00 0.00 29 998.1
20220528001043 77 336 8.0 13.0 0.00 0.00 0.00 29 998.1
20220528000540 77 334 9.0 12.0 0.00 0.00 0.00 29 998.0
20220528000039 77 340 8.0 16.0 0.00 0.00 0.00 29 998.0
20220527235538 78 332 10.0 16.0 0.00 0.00 0.00 30 997.9
20220527235038 78 5 10.0 15.0 0.00 0.00 0.00 29 997.9
20220527234544 78 355 7.0 15.0 0.00 0.00 0.00 28 997.9
20220527234038 78 345 9.0 15.0 0.00 0.00 0.00 27 997.9
20220527233537 79 2 10.0 15.0 0.00 0.00 0.00 27 998.0
20220527233044 79 330 7.0 13.0 0.00 0.00 0.00 28 998.1
20220527232536 79 53 7.0 13.0 0.00 0.00 0.00 27 998.1
20220527232036 80 9 7.0 13.0 0.00 0.00 0.00 27 998.1
20220527231543 80 16 7.0 14.0 0.00 0.00 0.00 26 998.2
20220527231040 81 31 5.0 12.0 0.00 0.00 0.00 27 998.3
20220527230535 81 52 7.0 14.0 0.00 0.00 0.00 26 998.3
20220527230059 80 12 10.0 14.0 0.00 0.00 0.00 25 998.3
20220527225532 81 345 8.0 14.0 0.00 0.00 0.00 26 998.5
20220527225032 81 350 6.0 11.0 0.00 0.00 0.00 24 998.5
20220527224540 81 285 6.0 12.0 0.00 0.00 0.00 23 998.6
20220527224030 82 271 7.0 11.0 0.00 0.00 0.00 21 998.7
20220527223528 82 282 2.0 9.0 0.00 0.00 0.00 21 998.8
20220527223040 82 236 5.0 9.0 0.00 0.00 0.00 20 999.0
20220527222527 82 178 3.0 8.0 0.00 0.00 0.00 20 999.1
20220527222030 82 183 4.0 12.0 0.00 0.00 0.00 21 999.2
20220527221525 81 255 5.0 12.0 0.00 0.00 0.00 20 999.3
20220527221027 81 226 6.0 15.0 0.00 0.00 0.00 21 999.5
20220527220524 81 236 10.0 20.0 0.00 0.00 0.00 23 999.5
20220527220023 81 255 13.0 20.0 0.00 0.00 0.00 22 999.6
20220527215524 81 284 12.0 20.0 0.00 0.00 0.00 22 999.6
20220527215028 81 244 14.0 20.0 0.00 0.00 0.00 22 999.7
20220527214522 82 238 7.0 18.0 0.00 0.00 0.00 22 999.7
20220527214023 82 244 5.0 14.0 0.00 0.00 0.00 21 999.8
20220527213522 82 244 5.0 14.0 0.00 0.00 0.00 20 999.9
20220527213020 83 271 8.0 17.0 0.00 0.00 0.00 21 1000.0
20220527212518 82 236 11.0 17.0 0.00 0.00 0.00 21 1000.0
20220527212018 82 209 7.0 13.0 0.00 0.00 0.00 22 1000.1
20220527211517 82 210 7.0 13.0 0.00 0.00 0.00 22 1000.0
20220527211019 82 288 7.0 15.0 0.00 0.00 0.00 22 1000.1
20220527210515 82 247 8.0 15.0 0.00 0.00 0.00 21 1000.1
20220527210014 82 230 7.0 16.0 0.00 0.00 0.00 23 1000.2
20220527205517 82 217 8.0 16.0 0.00 0.00 0.00 22 1000.3
20220527205012 81 273 10.0 15.0 0.00 0.00 0.00 22 1000.3
20220527204521 82 238 7.0 13.0 0.00 0.00 0.00 23 1000.4
20220527204013 82 203 7.0 13.0 0.00 0.00 0.00 23 1000.5
20220527203512 82 189 9.0 13.0 0.00 0.00 0.00 24 1000.5
20220527203015 80 232 6.0 11.0 0.00 0.00 0.00 27 1000.7
20220527202510 80 257 2.0 7.0 0.00 0.00 0.00 25 1000.7
20220527202006 80 205 0.0 12.0 0.00 0.00 0.00 25 1000.9
20220527201505 80 125 7.0 12.0 0.00 0.00 0.00 26 1001.0
20220527201006 80 338 5.0 9.0 0.00 0.00 0.00 26 1000.9
20220527200505 80 294 0.0 7.0 0.00 0.00 0.00 27 1001.1
20220527200006 79 254 2.0 6.0 0.00 0.00 0.00 26 1001.2
20220527195503 79 355 2.0 8.0 0.00 0.00 0.00 26 1001.3
20220527195002 79 258 3.0 8.0 0.00 0.00 0.00 27 1001.5
20220527194701 79 268 2.0 7.0 0.00 0.00 0.00 26 1001.5
20220527194100 80 287 2.0 15.0 0.00 0.00 0.00 25 1001.6
20220527193559 79 158 8.0 16.0 0.00 0.00 0.00 26 1001.7
20220527193058 80 113 6.0 12.0 0.00 0.00 0.00 25 1001.8
20220527192557 80 88 5.0 15.0 0.00 0.00 0.00 25 1001.8
20220527192100 80 124 9.0 15.0 0.00 0.00 0.00 25 1001.9
20220527191604 80 106 2.0 10.0 0.00 0.00 0.00 26 1002.0
20220527191055 79 171 1.0 11.0 0.00 0.00 0.00 28 1002.1
20220527190555 79 172 5.0 14.0 0.00 0.00 0.00 26 1002.2
20220527190103 80 149 9.0 13.0 0.00 0.00 0.00 27 1002.2
20220527185554 79 88 4.0 14.0 0.00 0.00 0.00 27 1002.3
20220527185054 79 135 5.0 18.0 0.00 0.00 0.00 27 1002.5
20220527184552 79 153 12.0 18.0 0.00 0.00 0.00 28 1002.6
20220527184052 78 271 3.0 16.0 0.00 0.00 0.00 27 1002.5
20220527183551 79 105 8.0 16.0 0.00 0.00 0.00 28 1002.6
20220527183051 79 92 5.0 14.0 0.00 0.00 0.00 28 1002.7
20220527182550 79 118 8.0 18.0 0.00 0.00 0.00 27 1002.7
20220527182051 79 140 13.0 18.0 0.00 0.00 0.00 27 1002.9
20220527181548 79 87 6.0 14.0 0.00 0.00 0.00 28 1002.8
20220527181048 79 104 8.0 16.0 0.00 0.00 0.00 28 1002.9
20220527180549 79 135 12.0 16.0 0.00 0.00 0.00 29 1002.8
20220527180046 78 97 5.0 11.0 0.00 0.00 0.00 27 1002.8
20220527175545 77 180 1.0 11.0 0.00 0.00 0.00 29 1002.9
20220527175045 77 116 6.0 13.0 0.00 0.00 0.00 26 1003.0
20220527174544 77 156 9.0 13.0 0.00 0.00 0.00 27 1003.0
20220527174046 77 174 5.0 13.0 0.00 0.00 0.00 30 1003.1
20220527173543 76 182 3.0 10.0 0.00 0.00 0.00 30 1003.1
20220527173050 77 174 7.0 11.0 0.00 0.00 0.00 31 1003.2
20220527172540 76 111 2.0 9.0 0.00 0.00 0.00 30 1003.3
20220527172042 76 126 5.0 9.0 0.00 0.00 0.00 31 1003.3
20220527171559 75 276 0.0 6.0 0.00 0.00 0.00 32 1003.3
20220527171038 75 199 3.0 6.0 0.00 0.00 0.00 32 1003.4
20220527170538 75 267 0.0 6.0 0.00 0.00 0.00 33 1003.4
20220527170035 74 53 0.0 6.0 0.00 0.00 0.00 35 1003.5
20220527165537 74 301 2.0 6.0 0.00 0.00 0.00 35 1003.5
20220527165036 74 271 1.0 8.0 0.00 0.00 0.00 37 1003.5
20220527164532 73 328 3.0 8.0 0.00 0.00 0.00 37 1003.6
20220527164036 72 345 2.0 9.0 0.00 0.00 0.00 36 1003.6
20220527163531 72 310 4.0 9.0 0.00 0.00 0.00 38 1003.6
20220527163050 72 284 4.0 9.0 0.00 0.00 0.00 40 1003.7
20220527162534 71 355 3.0 11.0 0.00 0.00 0.00 37 1003.8
20220527162031 71 291 6.0 11.0 0.00 0.00 0.00 38 1003.8
20220527161530 71 338 4.0 11.0 0.00 0.00 0.00 40 1003.9
20220527161030 71 322 5.0 11.0 0.00 0.00 0.00 42 1003.9
20220527160531 71 291 3.0 12.0 0.00 0.00 0.00 41 1003.9
20220527160036 70 345 7.0 12.0 0.00 0.00 0.00 42 1004.0
20220527155530 70 323 7.0 14.0 0.00 0.00 0.00 41 1004.1
20220527155030 70 320 6.0 14.0 0.00 0.00 0.00 43 1004.1
20220527154530 70 338 8.0 13.0 0.00 0.00 0.00 42 1004.2
20220527154029 70 350 7.0 14.0 0.00 0.00 0.00 42 1004.3
20220527153630 69 338 8.0 14.0 0.00 0.00 0.00 44 1004.3
20220527153029 69 345 10.0 15.0 0.00 0.00 0.00 42 1004.4
20220527152529 69 334 10.0 15.0 0.00 0.00 0.00 43 1004.6
20220527152029 68 345 9.0 14.0 0.00 0.00 0.00 43 1004.7
20220527151533 68 341 6.0 15.0 0.00 0.00 0.00 44 1004.8
20220527151028 68 14 10.0 17.0 0.00 0.00 0.00 42 1004.7
20220527150532 69 330 9.0 17.0 0.00 0.00 0.00 41 1004.7
20220527150027 69 332 8.0 14.0 0.00 0.00 0.00 41 1004.8
20220527145527 69 22 8.0 14.0 0.00 0.00 0.00 40 1004.7
20220527145030 69 3 9.0 14.0 0.00 0.00 0.00 41 1004.7
20220527144534 68 320 8.0 12.0 0.00 0.00 0.00 42 1004.8
20220527144026 67 1 7.0 12.0 0.00 0.00 0.00 42 1004.7
20220527143526 67 335 6.0 11.0 0.00 0.00 0.00 42 1004.8
20220527143040 67 3 6.0 11.0 0.00 0.00 0.00 42 1004.8
20220527142528 67 345 7.0 14.0 0.00 0.00 0.00 42 1004.7
20220527142025 67 317 6.0 15.0 0.00 0.00 0.00 41 1004.8
20220527141524 67 321 9.0 15.0 0.00 0.00 0.00 42 1004.8
20220527141125 67 330 8.0 13.0 0.00 0.00 0.00 41 1004.8
20220527140524 68 319 8.0 15.0 0.00 0.00 0.00 42 1004.9
20220527140029 67 345 11.0 18.0 0.00 0.00 0.00 40 1004.9
20220527135527 66 309 10.0 18.0 0.00 0.00 0.00 41 1004.9
20220527135023 66 328 10.0 16.0 0.00 0.00 0.00 41 1004.8
20220527134542 65 326 8.0 14.0 0.00 0.00 0.00 41 1004.9
20220527134022 64 309 9.0 13.0 0.00 0.00 0.00 42 1004.8
20220527133522 64 313 9.0 13.0 0.00 0.00 0.00 42 1004.7
20220527133028 63 291 9.0 13.0 0.00 0.00 0.00 43 1004.7
20220527132523 62 311 6.0 10.0 0.00 0.00 0.00 44 1004.7
20220527132028 62 306 5.0 9.0 0.00 0.00 0.00 44 1004.7
20220527131520 61 309 5.0 8.0 0.00 0.00 0.00 45 1004.7
20220527131022 61 309 3.0 8.0 0.00 0.00 0.00 44 1004.8
20220527130520 61 317 3.0 8.0 0.00 0.00 0.00 44 1004.9
20220527130021 62 314 4.0 8.0 0.00 0.00 0.00 43 1004.9
20220527125523 63 324 3.0 8.0 0.00 0.00 0.00 42 1004.8
20220527125022 63 329 2.0 8.0 0.00 0.00 0.00 42 1004.8
20220527124520 63 336 4.0 8.0 0.00 0.00 0.00 42 1004.7
20220527124021 63 359 3.0 9.0 0.00 0.00 0.00 42 1004.8
20220527123521 62 3 5.0 9.0 0.00 0.00 0.00 42 1004.9
20220527123019 62 345 6.0 9.0 0.00 0.00 0.00 42 1004.8
20220527122518 61 350 4.0 9.0 0.00 0.00 0.00 44 1004.7
20220527122017 61 355 3.0 8.0 0.00 0.00 0.00 44 1004.7
20220527121520 62 43 2.0 8.0 0.00 0.00 0.00 43 1004.6
20220527121020 62 350 4.0 9.0 0.00 0.00 0.00 43 1004.6
20220527120519 62 39 4.0 9.0 0.00 0.00 0.00 43 1004.5
20220527120015 62 1 4.0 9.0 0.00 0.00 0.00 42 1004.5
20220527115516 62 13 4.0 9.0 0.00 0.00 0.00 42 1004.5
20220527115015 62 18 5.0 9.0 0.00 0.00 0.00 42 1004.5
20220527114514 62 26 4.0 10.0 0.00 0.00 0.00 42 1004.5
20220527114014 63 31 5.0 10.0 0.00 0.00 0.00 41 1004.6
20220527113514 63 24 5.0 9.0 0.00 0.00 0.00 40 1004.6
20220527113013 63 47 4.0 10.0 0.00 0.00 0.00 40 1004.5
20220527112513 62 22 5.0 12.0 0.00 0.00 0.00 41 1004.5
20220527112012 60 34 7.0 12.0 0.00 0.00 0.00 44 1004.5
20220527111513 58 36 4.0 10.0 0.00 0.00 0.00 44 1004.4
20220527111010 58 109 2.0 5.0 0.00 0.00 0.00 38 1004.4
20220527110509 60 123 3.0 5.0 0.00 0.00 0.00 34 1004.4
20220527110006 61 160 2.0 4.0 0.00 0.00 0.00 35 1004.4
20220527105514 62 53 0.0 1.0 0.00 0.00 0.00 34 1004.4
20220527105005 62 39 0.0 5.0 0.00 0.00 0.00 33 1004.3
20220527104505 62 45 2.0 5.0 0.00 0.00 0.00 32 1004.3
20220527104006 62 355 0.0 3.0 0.00 0.00 0.00 32 1004.3
20220527103503 63 323 1.0 4.0 0.00 0.00 0.00 34 1004.2
20220527103007 62 36 2.0 4.0 0.00 0.00 0.00 28 1004.1
20220527102501 62 24 2.0 4.0 0.00 0.00 0.00 28 1004.0
20220527102101 63 334 2.0 4.0 0.00 0.00 0.00 30 1004.1
20220527101607 63 355 1.0 4.0 0.00 0.00 0.00 28 1004.0
20220527101100 64 331 2.0 4.0 0.00 0.00 0.00 29 1004.0
20220527100557 65 259 0.0 4.0 0.00 0.00 0.00 27 1004.0
20220527100059 66 280 2.0 6.0 0.00 0.00 0.00 26 1004.1
20220527095556 67 305 3.0 6.0 0.00 0.00 0.00 25 1004.0
20220527095056 69 251 1.0 4.0 0.00 0.00 0.00 26 1003.9
20220527094605 70 62 0.0 3.0 0.00 0.00 0.00 21 1003.9
20220527094054 70 62 2.0 3.0 0.00 0.00 0.00 21 1004.0
20220527093554 70 134 1.0 7.0 0.00 0.00 0.00 21 1003.9
20220527093054 70 228 1.0 7.0 0.00 0.00 0.00 21 1004.0
20220527092555 69 105 2.0 9.0 0.00 0.00 0.00 21 1003.9
20220527092053 68 115 5.0 9.0 0.00 0.00 0.00 21 1003.8
20220527091552 68 106 6.0 8.0 0.00 0.00 0.00 22 1003.9
20220527091051 69 145 3.0 6.0 0.00 0.00 0.00 22 1003.9
20220527090551 70 184 3.0 6.0 0.00 0.00 0.00 22 1003.8
20220527090050 71 226 1.0 8.0 0.00 0.00 0.00 23 1003.8
20220527085553 71 228 3.0 10.0 0.00 0.00 0.00 23 1003.6
20220527085053 72 253 6.0 13.0 0.00 0.00 0.00 22 1003.7
20220527084549 73 256 3.0 20.0 0.00 0.00 0.00 21 1003.6
20220527084048 72 247 12.0 20.0 0.00 0.00 0.00 20 1003.7
20220527083551 67 228 7.0 12.0 0.00 0.00 0.00 24 1003.5
20220527083048 66 114 1.0 7.0 0.00 0.00 0.00 23 1003.7
20220527082544 66 133 4.0 9.0 0.00 0.00 0.00 23 1003.2
20220527082044 66 132 6.0 9.0 0.00 0.00 0.00 22 1002.8
20220527081544 66 144 3.0 7.0 0.00 0.00 0.00 22 1002.9
20220527081044 68 179 4.0 10.0 0.00 0.00 0.00 22 1002.9
20220527080543 68 172 5.0 11.0 0.00 0.00 0.00 21 1003.0
20220527080044 68 141 2.0 11.0 0.00 0.00 0.00 21 1003.0
20220527075542 68 144 5.0 10.0 0.00 0.00 0.00 21 1003.0
20220527075046 68 215 5.0 8.0 0.00 0.00 0.00 22 1003.0
20220527074543 67 150 3.0 11.0 0.00 0.00 0.00 22 1003.0
20220527074042 67 174 5.0 11.0 0.00 0.00 0.00 22 1003.0
20220527073541 67 309 2.0 7.0 0.00 0.00 0.00 25 1002.9
20220527073050 67 108 3.0 9.0 0.00 0.00 0.00 22 1003.1
20220527072539 67 175 4.0 11.0 0.00 0.00 0.00 22 1003.0
20220527072042 67 119 3.0 14.0 0.00 0.00 0.00 22 1002.9
20220527071541 67 111 9.0 14.0 0.00 0.00 0.00 22 1002.7
20220527071041 67 93 8.0 12.0 0.00 0.00 0.00 22 1002.8
20220527070542 66 112 9.0 12.0 0.00 0.00 0.00 23 1002.8
20220527070036 66 119 8.0 11.0 0.00 0.00 0.00 23 1002.8
20220527065537 66 121 8.0 11.0 0.00 0.00 0.00 22 1002.8
20220527065036 66 102 8.0 11.0 0.00 0.00 0.00 23 1002.8
20220527064535 66 122 9.0 13.0 0.00 0.00 0.00 23 1002.8
20220527064034 65 124 8.0 13.0 0.00 0.00 0.00 23 1002.8
20220527063532 65 160 2.0 8.0 0.00 0.00 0.00 24 1002.8
20220527063031 65 161 3.0 8.0 0.00 0.00 0.00 23 1002.8
20220527062530 66 130 3.0 9.0 0.00 0.00 0.00 23 1002.7
20220527062030 67 116 5.0 9.0 0.00 0.00 0.00 22 1002.8
20220527061530 67 154 4.0 14.0 0.00 0.00 0.00 22 1002.8
20220527061026 68 128 6.0 17.0 0.00 0.00 0.00 21 1002.7
20220527060525 68 170 7.0 12.0 0.00 0.00 0.00 21 1002.8
20220527060023 68 151 4.0 11.0 0.00 0.00 0.00 22 1002.7
20220527055523 68 205 5.0 14.0 0.00 0.00 0.00 22 1002.7
20220527055023 67 145 9.0 14.0 0.00 0.00 0.00 22 1002.6
20220527054524 67 127 7.0 11.0 0.00 0.00 0.00 22 1002.8
20220527054026 67 132 8.0 12.0 0.00 0.00 0.00 22 1002.7
20220527053523 67 132 9.0 12.0 0.00 0.00 0.00 22 1002.7
20220527053023 67 132 8.0 11.0 0.00 0.00 0.00 22 1002.7
20220527052522 67 151 7.0 12.0 0.00 0.00 0.00 22 1002.7
20220527052022 67 120 9.0 12.0 0.00 0.00 0.00 22 1002.7
20220527051521 67 133 8.0 12.0 0.00 0.00 0.00 22 1002.6
20220527051022 67 131 10.0 12.0 0.00 0.00 0.00 22 1002.6
20220527050528 67 145 7.0 12.0 0.00 0.00 0.00 22 1002.7
20220527050021 67 144 9.0 12.0 0.00 0.00 0.00 22 1002.6
20220527045521 68 146 8.0 12.0 0.00 0.00 0.00 22 1002.6
20220527045021 68 136 9.0 13.0 0.00 0.00 0.00 22 1002.6
20220527044521 68 132 9.0 12.0 0.00 0.00 0.00 22 1002.5
20220527044029 67 138 8.0 12.0 0.00 0.00 0.00 22 1002.5
20220527043521 67 128 8.0 11.0 0.00 0.00 0.00 22 1002.5
20220527043027 67 143 8.0 12.0 0.00 0.00 0.00 22 1002.4
20220527042524 67 132 9.0 12.0 0.00 0.00 0.00 23 1002.3
20220527042023 66 143 7.0 10.0 0.00 0.00 0.00 24 1002.3
20220527041533 67 137 7.0 11.0 0.00 0.00 0.00 23 1002.2
20220527041023 67 134 8.0 11.0 0.00 0.00 0.00 23 1002.2
20220527040523 66 133 9.0 11.0 0.00 0.00 0.00 24 1002.1
20220527040033 66 134 7.0 10.0 0.00 0.00 0.00 24 1002.1
20220527035519 65 138 7.0 10.0 0.00 0.00 0.00 24 1002.0
20220527035020 65 145 6.0 9.0 0.00 0.00 0.00 25 1001.9
20220527034529 64 134 6.0 9.0 0.00 0.00 0.00 25 1001.9
20220527034019 64 134 5.0 8.0 0.00 0.00 0.00 26 1001.8
20220527033519 65 145 5.0 8.0 0.00 0.00 0.00 25 1001.8
20220527033019 66 138 6.0 8.0 0.00 0.00 0.00 25 1001.7
20220527032519 66 174 6.0 8.0 0.00 0.00 0.00 25 1001.7
20220527032018 66 143 7.0 9.0 0.00 0.00 0.00 24 1001.5
20220527031518 66 152 6.0 8.0 0.00 0.00 0.00 24 1001.6
20220527031018 67 146 6.0 8.0 0.00 0.00 0.00 23 1001.6
20220527030517 68 166 5.0 8.0 0.00 0.00 0.00 23 1001.5
20220527030018 68 143 5.0 7.0 0.00 0.00 0.00 23 1001.5
20220527025517 69 155 4.0 7.0 0.00 0.00 0.00 22 1001.4
20220527025018 70 156 5.0 7.0 0.00 0.00 0.00 21 1001.4
20220527024517 71 168 4.0 5.0 0.00 0.00 0.00 21 1001.3
20220527024018 73 164 3.0 7.0 0.00 0.00 0.00 20 1001.3
20220527023517 74 142 4.0 7.0 0.00 0.00 0.00 18 1001.3
20220527023025 76 159 5.0 8.0 0.00 0.00 0.00 18 1001.3
20220527022512 77 160 5.0 9.0 0.00 0.00 0.00 17 1001.4
20220527022012 78 136 6.0 10.0 0.00 0.00 0.00 16 1001.4
20220527021536 79 149 6.0 9.0 0.00 0.00 0.00 16 1001.4
20220527021012 81 159 6.0 11.0 0.00 0.00 0.00 15 1001.4
20220527020510 82 174 7.0 11.0 0.00 0.00 0.00 15 1001.5
20220527020012 83 150 7.0 11.0 0.00 0.00 0.00 14 1001.4
20220527015512 84 133 8.0 12.0 0.00 0.00 0.00 14 1001.4
20220527015012 84 160 9.0 15.0 0.00 0.00 0.00 14 1001.5
20220527014508 85 147 10.0 15.0 0.00 0.00 0.00 13 1001.5